Weather in Pogi

Russia / Saint-Petersburg and Leningrad Oblast     59°31′43″N   30°34′57″E
temp.,
°C
wind,
m/s
gust,
m/s
humid.,
%
clouds,
%
prec.,
mm/h
press.,
hPa
HPBL,
m
23 april, fri
fri2300:00+7ssw4792100 6.3 1006735
03:00+5s3791100 6.4 1006305
06:00+4s3793100 0.0 1005292
09:00+5ssw477794 0.0 1006905
12:00+7ssw695992 0.1 10061714
15:00+6ssw585485 0.1 10071532
18:00+7ssw48526 0.0 10071494
21:00+3s27785 0.0 1007166
24 april, sat
sat2400:00+1s28905 0.0 1007217
03:000s26977 0.0 1007167
06:00+1s2592100 0.0 1006481
09:00+2sw259494 0.3 1007372
12:00+5ssw3459100 0.1 10061463
15:00+5sw3456100 0.1 10071206
18:00+6ssw235190 0.1 10061298
21:00+2ssw117253 0.1 100610
25 april, sun
sun2500:000wsw11855 0.0 100510
03:00−1wsw229346 0.0 100527
06:00−1w249382 0.0 1005106
09:00+3w2368100 0.0 1004682
12:00+5wsw2358100 0.2 10041232
15:00+6w3456100 0.4 10051279
18:00+6nw346099 0.4 10051096
21:00+2wnw2687100 0.4 1005203
26 april, mon
mon2600:00+1w3894100 0.0 1005320
03:00+2wsw3791100 0.0 1005579
06:00+1wsw3997100 0.2 1004426
09:00+2wsw3998100 0.9 1004426
12:00+2wsw4997100 0.6 1005401
15:00+2wsw31098100 1.1 1005412
18:00+2wsw3897100 1.1 1005408
21:00+1wsw2598100 2.8 1005279
27 april, tue
tue2700:00+1nw13100100 1.1 1004202
03:00+1nnw2598100 1.9 1004275
06:00+1nnw2798100 0.8 1004315
09:00+1nnw3797100 1.4 1004368
12:00+2n3696100 0.2 1006475
15:00+3n3689100 0.4 1006688
18:00+3n359099 0.3 1006634
21:00+1nnw2599100 0.4 1007324